Location: Dumpton Point
(51.3500°N, 1.4433°E)
Time: 05:37:14
(UTC+00:00)

Altair - Pass Details

Date: 30 September 2022
Orbit: 1501 x 1682 km, 47.2° (Epoch: 26 November)

Event Time Altitude Azimuth Distance (km) Brightness Sun altitude
Rises 11:58:21 0° 287° (WNW) 4,921 10.0 35.7°
Reaches altitude 10° 12:01:52 10° 279° (W) 3,941 9.7 35.6°
Maximum altitude 12:10:34 34° 220° (SW) 2,510 10.0 35.5°
Drops below altitude 10° 12:19:14 10° 160° (SSE) 3,914 10.6 35.2°
Sets 12:22:44 0° 152° (SSE) 4,883 10.8 35.1°
